Probability
0 0 0 0 0 0 0 0 0 0 0 0 0 0 0 0 0 0 0 0 0 0 0 0 0 0 0 0 0 0 0 0 0 0 0 0 0 0
0 0 0 0 0 0 0 0 0 0 0 0 0 0 0 0 0 0 0 0 0 0 0 0 0 0 0 0 0 0 0 0 0 0 0 0 0 0
0 0 0 0 0 0 0 0 0 0 0 0 0 0 0 0 0 0 0 0 0 0 0 0 0 0 0 0 0 0 0 0 0 0 0 0 0 0
0 0 0 0 0 0 0 0 0 0 0 0 0 0 0 0 0 0 0 0 0 0 0 0 0 0 0 0 0 0 0 0 0 0 0 0 0 0
0 0 0 0 0 0 0 0 0 0 0 0 0 0 0 0 0 0 0 0 0 0 0 0 0 0 0 0 0 0 0 0 0 0 0 0 0 0
0 0 0 0 0 0 0 0 0 0 0 0 0 0 0 0 0 0 0 0 0 0 0 0 0 0 0 0 0 0 0 0 0 0 0 0 0 0
0 0 0 0 0 0 0 0 0 0 0 0 0 0 0 0 0 0 0 0 0 0 0 0 0 0 0 0 0 0 0 0 0 0 0 0 0 0
0 0 0 0 0 0 0 0 0 0 0 0 0 0 0 0 0 0 0 0 0 0 0 0 0 0 0 0 0 0 0 0 0 0 0 0 0 0
0 0 0 0 0 0 0 0 0 0 0 0 0 0 0 0 0 0 0 0 0 0 0 0 0 0 0 0 0 0 0 0 0 0 0 0 0 0
0 0 0 0 0 0 0 0 0 0 0 0 0 0 0 0 0 0 0 0 0 0 0 0 0 0 0 0 0 0 0 0 0 0 0 0 0 0
0 0 0 0 0 0 0 0 0 0 0 0 0 0 0 0 0 0 0 0 0 0 0 0 0 0 0 0 0 0 0 0 0 0 0 0 0 0
0 0 0 0 0 0 0 0 0 0 0 0 0 0 0 0 0 0 0 0 0 0 0 0 0 0 0 0 0 0 0 0 0 0 0 0 0 0
0 0 0 0 0 0 0 0 0 0 0 0 0 0 0 0 0 0 0 0 0 0 0 0 0 0 0 0 0 0 0 0 0 0 0 0 0 0
0 0 0 0 0 0 0 0 0 0 0 0 0 0 0 0 0 0 0 0 0 0 0 0 0 0 0 0 0 0 0 0 0 0 0 0 0 0
0 0 0 0 0 0 0 0 0 0 0 0 0 0 0 0 0 0 0 0 0 0 0 0 0 0 0 0 0 0 0 0 0 0 0 0 0 0
0 0 0 0 0 0 0 0 0 0 0 0 0 0 0 0 0 0 0 0 0 0 0 0 0 0 0 0 0 0 0 0 0 0 0 0 0 0
0 0 0 0 0 0 0 0 0 0 0 0 0 0 0 0 0 0 0 0 0 0 0 0 0 0 0 0 0 0 0 0 0 0 0 0 0 0
0 0 0 0 0 0 0 0 0 0 0 0 0 0 0 0 0 0 0 0 0 0 0 0 0 0 0 0 0 0 0 0 0 0 0 0 0 0
0 0 0 0 0 0 0 0 0 0 0 0 0 0 0 0 0 0 0 0 0 0 0 0 0 0 0 0 0 0 0 0 0 0 0 0 0 0
0 0 0 0 0 0 0 0 0 0 0 0 0 0 0 0 0 0 0 0 0 0 0 0 0 0 0 0 0 0 0 0 0 0 0 0 0 0
0 0 0 0 0 0 0 0 0 0 0 0 0 0 0 0 0 0 0 0 0 0 0 0 0 0 0 0 0 0 0 0 0 0 0 0 0 0
0 0 0 0 0 0 0 0 0 0 0 0 0 0 0 0 0 0 0 0 0 0 0 0 0 0 0 0 0 0 0 0 0 0 0 0 0 0
0 0 0 0 0 0 0 0 0 0 0 0 0 0 0 0 0 0 0 0 0 0 0 0 0 0 0 0 0 0 0 0 0 0 0 0 0 0
Height
5742 5740 5738 5735 5731 5728 5724 5721 5718 5714 5711 5706 5701 5696 5691 5686 5680 5674 5668 5662 5655 5648 5642 5635 5628 5621 5614 5608 5602 5595 5589 5584 5578 5573 5568 5563 5558 5554
5734 5732 5730 5727 5723 5720 5716 5712 5709 5705 5702 5697 5692 5687 5682 5676 5670 5664 5657 5650 5643 5636 5628 5621 5614 5606 5599 5592 5585 5578 5572 5566 5560 5554 5548 5543 5538 5533
5726 5724 5722 5718 5715 5712 5708 5704 5700 5696 5693 5688 5683 5677 5672 5666 5660 5653 5646 5639 5631 5623 5615 5607 5599 5591 5583 5576 5568 5561 5554 5548 5541 5535 5528 5522 5517 5513
5718 5716 5713 5710 5707 5704 5700 5696 5692 5688 5683 5679 5674 5668 5662 5655 5649 5642 5634 5626 5618 5609 5601 5592 5584 5575 5567 5559 5552 5544 5536 5529 5522 5514 5508 5502 5496 5491
5710 5707 5705 5702 5699 5695 5692 5688 5683 5679 5674 5669 5664 5658 5651 5644 5637 5630 5621 5613 5604 5595 5586 5577 5568 5560 5551 5543 5534 5526 5518 5510 5502 5494 5488 5481 5476 5470
5702 5699 5696 5693 5690 5687 5683 5679 5675 5670 5665 5659 5653 5647 5641 5633 5625 5618 5610 5600 5591 5581 5571 5562 5553 5544 5535 5526 5517 5508 5499 5490 5482 5475 5468 5462 5455 5450
5693 5691 5688 5685 5682 5678 5674 5670 5665 5660 5655 5649 5643 5637 5629 5622 5613 5605 5596 5587 5577 5566 5557 5548 5538 5530 5520 5510 5500 5490 5481 5472 5464 5457 5450 5443 5437 5431
5685 5682 5680 5676 5673 5670 5665 5661 5656 5651 5645 5639 5633 5625 5617 5609 5601 5591 5581 5572 5564 5555 5544 5535 5524 5515 5504 5494 5484 5474 5465 5456 5448 5441 5434 5427 5421 5415
5677 5674 5671 5668 5665 5661 5656 5652 5647 5641 5635 5629 5621 5613 5605 5597 5588 5578 5567 5556 5547 5537 5529 5521 5510 5500 5489 5478 5469 5460 5451 5442 5433 5426 5419 5413 5407 5401
5668 5666 5663 5660 5656 5652 5647 5642 5637 5631 5625 5618 5610 5602 5592 5583 5573 5563 5552 5543 5533 5523 5513 5505 5495 5486 5475 5465 5455 5446 5438 5429 5421 5413 5407 5401 5395 5390
5660 5658 5654 5651 5647 5643 5638 5633 5627 5621 5613 5606 5598 5589 5579 5569 5559 5549 5539 5530 5521 5511 5500 5491 5482 5473 5464 5454 5443 5434 5426 5417 5409 5402 5396 5390 5385 5380
5652 5649 5646 5642 5638 5633 5629 5623 5617 5610 5603 5595 5586 5577 5567 5556 5546 5536 5527 5517 5507 5498 5488 5478 5468 5459 5453 5444 5433 5424 5415 5407 5399 5393 5386 5381 5376 5371
5643 5640 5637 5633 5629 5624 5619 5613 5607 5600 5592 5584 5575 5565 5554 5544 5534 5524 5514 5504 5494 5484 5475 5465 5456 5447 5438 5432 5423 5413 5405 5398 5391 5384 5378 5373 5368 5364
5634 5631 5628 5624 5619 5615 5609 5603 5596 5589 5581 5572 5563 5553 5542 5532 5522 5512 5502 5492 5482 5472 5462 5453 5445 5436 5428 5420 5412 5404 5397 5390 5383 5378 5372 5367 5362 5358
5626 5622 5619 5614 5610 5605 5599 5592 5585 5578 5569 5560 5550 5541 5531 5521 5511 5501 5491 5481 5471 5462 5452 5443 5435 5426 5418 5411 5403 5396 5390 5383 5377 5372 5367 5362 5358 5354
5617 5613 5609 5605 5600 5595 5589 5582 5575 5567 5558 5549 5539 5529 5519 5509 5500 5490 5481 5471 5462 5453 5444 5435 5426 5418 5410 5403 5396 5389 5383 5377 5372 5367 5362 5357 5353 5350
5608 5604 5600 5596 5591 5585 5579 5572 5564 5555 5546 5537 5527 5518 5508 5498 5489 5480 5471 5462 5453 5445 5436 5427 5419 5411 5403 5397 5390 5384 5377 5372 5367 5362 5358 5354 5350 5346
5599 5596 5591 5586 5581 5575 5569 5561 5553 5544 5535 5526 5516 5507 5497 5488 5479 5470 5461 5452 5444 5436 5428 5420 5413 5405 5397 5390 5385 5379 5373 5368 5363 5359 5355 5351 5347 5344
5591 5587 5582 5577 5572 5566 5559 5551 5542 5533 5523 5514 5505 5496 5487 5478 5469 5460 5452 5444 5436 5429 5421 5414 5407 5400 5393 5386 5380 5375 5370 5365 5360 5356 5352 5348 5345 5341
5582 5578 5573 5568 5562 5556 5548 5540 5531 5521 5512 5503 5494 5485 5476 5468 5460 5451 5443 5436 5429 5422 5415 5408 5401 5394 5388 5382 5377 5372 5367 5363 5358 5354 5350 5347 5343 5340
5573 5569 5564 5559 5552 5545 5537 5529 5520 5511 5501 5492 5484 5475 5467 5458 5450 5443 5435 5429 5422 5415 5409 5402 5396 5390 5384 5378 5373 5369 5365 5361 5356 5352 5349 5345 5342 5339
5565 5560 5555 5549 5543 5535 5527 5519 5510 5500 5491 5482 5474 5465 5457 5449 5442 5435 5428 5422 5416 5410 5403 5397 5391 5385 5380 5375 5370 5366 5363 5359 5355 5351 5347 5343 5340 5337
5556 5551 5546 5540 5533 5525 5517 5509 5500 5491 5482 5473 5464 5456 5448 5441 5434 5428 5422 5416 5410 5404 5398 5392 5386 5381 5376 5372 5368 5364 5361 5357 5353 5350 5347 5343 5340 5337
Wind_Speed
37 37 38 38 39 39 39 40 40 40 40 41 42 43 44 45 46 48 49 51 52 54 55 56 57 57 57 58 58 59 60 60 60 61 61 62 62 63
37 37 38 39 38 39 40 40 41 41 41 41 42 44 45 47 48 50 52 53 55 57 58 59 60 60 61 61 61 60 61 61 62 63 63 64 64 64
37 37 38 38 39 39 40 40 41 42 42 43 44 45 47 49 51 52 54 55 57 59 60 61 61 62 62 61 61 62 63 64 65 66 66 65 64 64
37 38 38 38 39 39 40 40 41 42 43 44 45 47 49 51 53 54 56 58 60 61 63 63 63 63 62 63 64 64 65 66 67 66 65 64 64 63
37 37 38 38 38 39 40 40 41 43 44 45 47 49 51 53 55 57 59 61 62 63 64 64 64 64 64 65 65 66 67 67 66 65 63 63 63 63
36 37 37 37 38 38 39 40 42 43 45 46 48 51 53 55 57 59 61 62 64 64 64 64 64 64 65 66 67 67 67 66 64 62 62 61 61 60
36 36 37 37 37 38 40 41 43 44 46 48 50 52 55 57 59 61 62 63 64 64 63 63 64 64 66 66 67 66 65 63 61 60 58 57 56 55
35 35 36 37 38 39 40 41 43 45 47 49 51 54 56 58 61 63 64 65 64 63 62 62 64 65 65 65 64 63 61 59 58 56 54 53 51 49
34 35 36 37 38 39 41 42 44 46 48 51 53 55 58 60 63 64 65 64 63 62 62 63 64 64 63 61 61 60 58 56 55 53 51 49 46 44
34 35 36 37 38 40 41 43 45 48 50 52 55 57 59 62 63 64 64 62 62 63 63 63 62 61 60 59 59 57 55 53 51 48 46 44 42 40
34 35 36 37 39 40 42 44 46 49 51 53 55 58 60 62 63 62 62 61 61 62 62 61 60 59 57 56 55 53 51 49 47 45 42 40 38 36
34 35 36 38 39 41 43 45 47 49 52 54 57 59 61 62 62 62 62 61 61 60 60 60 59 56 53 52 52 51 48 46 44 41 39 37 35 33
34 35 37 38 40 42 44 46 48 50 52 55 58 61 61 61 61 61 61 60 59 59 59 58 55 54 53 52 49 47 44 42 40 37 35 33 32 29
34 35 37 39 41 43 45 47 48 51 54 57 59 61 61 60 60 60 59 58 58 57 56 55 53 52 51 49 46 42 40 38 36 33 32 30 28 26
34 36 38 40 41 43 45 47 49 53 56 58 59 59 59 58 58 58 57 56 56 54 53 52 51 49 48 46 42 39 37 35 33 30 29 27 25 23
35 37 38 40 41 43 46 48 51 54 56 57 57 57 58 57 57 56 55 54 53 52 51 50 48 46 44 42 38 36 34 32 29 28 26 24 22 21
35 37 38 40 42 44 46 49 52 54 56 56 56 57 57 56 55 55 54 52 50 49 48 47 45 43 41 39 36 34 32 29 27 25 23 22 21 20
35 37 38 40 42 44 47 50 53 54 55 55 56 56 56 54 55 54 52 50 48 46 45 43 41 40 38 36 34 31 29 27 25 22 21 20 19 18
35 36 38 40 42 45 48 51 53 55 55 55 55 55 54 53 54 52 49 46 45 43 41 40 39 38 35 33 31 28 26 24 22 21 20 19 18 17
35 36 38 41 43 47 49 52 53 54 54 54 54 53 53 52 52 49 46 43 42 40 39 38 37 34 32 30 28 25 23 22 21 20 19 18 17 16
35 37 39 41 44 47 49 51 52 53 53 52 52 52 51 51 49 46 43 41 39 38 37 36 34 32 30 28 26 23 22 21 20 19 18 17 16 15
35 37 39 42 44 47 49 50 52 52 52 51 51 50 49 48 45 43 41 38 37 36 36 34 32 30 28 25 23 21 20 20 18 18 17 16 15 14
35 37 39 42 44 47 49 50 51 51 50 50 49 47 46 44 42 40 39 37 36 36 34 33 30 28 25 23 21 20 19 18 17 17 16 15 14 13
Wind_Direction
291 294 297 298 300 300 301 302 303 304 305 305 306 306 308 308 309 309 309 309 310 309 308 307 306 305 304 303 301 300 299 297 296 295 294 292 290 288
291 294 296 298 298 299 300 301 303 304 304 305 305 306 308 308 309 309 309 309 309 309 308 308 307 305 304 303 302 301 299 298 297 296 294 292 290 289
291 294 295 296 297 298 299 301 302 304 304 305 306 307 307 308 309 309 309 309 309 308 308 308 306 305 304 303 302 301 300 299 298 296 295 293 291 289
291 293 294 295 297 298 299 301 302 303 305 306 306 307 308 308 309 309 309 309 309 308 308 308 307 306 305 304 304 303 301 300 299 298 296 294 292 290
290 292 293 295 296 297 298 300 301 303 305 306 307 308 308 309 309 309 310 310 309 309 309 308 308 307 306 305 304 304 303 302 301 299 297 295 293 291
289 291 293 295 296 297 299 301 302 304 305 306 307 308 309 309 310 310 310 310 309 309 309 308 307 307 307 307 306 305 305 303 302 300 298 297 295 293
289 291 293 295 296 298 300 301 302 304 305 306 307 308 309 309 310 311 310 310 310 309 309 309 309 309 308 308 307 307 307 305 304 303 301 299 298 296
289 291 293 295 297 298 300 302 303 305 306 307 308 309 309 310 311 312 311 311 310 310 310 310 310 310 309 309 309 309 309 308 307 305 303 302 301 299
288 291 294 295 297 299 301 302 303 305 307 308 309 309 310 311 312 312 312 311 312 312 311 311 311 311 311 311 311 312 311 310 309 307 306 304 303 301
289 292 293 296 298 299 301 303 304 306 307 309 310 311 311 312 313 313 313 313 313 313 313 313 313 313 313 313 313 313 312 312 311 310 309 307 306 304
289 291 294 296 298 300 302 303 305 307 308 310 311 312 312 313 314 314 314 314 314 314 314 314 314 314 314 315 315 315 314 313 313 312 311 310 308 307
289 292 294 297 299 301 302 304 306 308 310 311 312 313 313 314 315 315 315 315 315 315 315 315 316 316 316 316 316 315 314 314 314 313 312 312 311 309
291 293 295 298 300 302 304 306 307 309 310 312 313 314 314 315 315 316 316 316 316 316 317 317 317 318 318 319 318 317 316 316 316 316 315 314 314 313
291 294 297 299 301 303 305 307 309 310 311 313 314 315 315 316 316 316 316 317 317 318 318 319 319 319 320 320 320 319 319 319 319 318 318 318 317 317
293 296 298 301 303 305 307 308 310 311 313 315 315 316 316 316 316 317 317 318 318 319 320 320 320 321 322 322 322 321 321 321 320 321 321 321 321 320
294 297 299 302 304 306 308 310 311 313 315 316 316 317 317 317 317 318 318 319 319 320 320 321 322 323 324 325 324 324 324 323 323 324 324 324 324 324
296 299 301 304 306 308 310 312 314 315 316 317 318 318 319 318 318 319 319 319 319 320 321 322 324 325 326 326 326 326 326 326 327 327 327 327 327 327
298 301 303 305 308 310 312 314 315 317 317 317 318 319 319 319 319 320 320 320 320 321 323 324 325 327 327 327 328 329 329 330 331 331 332 331 330 330
299 302 305 308 310 312 314 315 317 317 318 318 319 319 319 320 321 321 321 321 322 323 324 325 326 327 328 328 330 331 332 333 334 335 335 335 334 334
301 304 307 309 311 313 315 317 318 319 319 320 320 320 320 321 322 323 322 322 323 324 325 326 328 329 329 330 331 332 334 335 336 337 338 338 338 339
303 306 308 311 313 315 317 319 320 321 321 321 321 321 322 322 323 323 323 323 323 324 325 327 328 329 330 331 332 334 335 337 338 340 341 342 342 343
305 307 310 313 315 318 319 320 322 322 322 322 322 322 323 323 323 324 324 323 323 325 326 326 327 329 330 331 332 334 336 338 340 343 346 347 348 349
307 310 313 315 318 320 321 322 323 324 323 323 323 324 324 325 325 325 325 324 323 324 325 327 327 329 330 331 333 334 337 340 343 346 349 353 354 356